| time (UTC) | temp F | wind direction | speed MPH | gust MPH | rain 1hr in | rain 24hr in | rain mn in | humidity % | barometer mb |
| 20260506073019 | 54 | 165 | 4.0 | 14.0 | 0.00 | 0.00 | 0.00 | 86 | 1015.5 |
| 20260506071515 | 54 | 177 | 2.0 | 10.0 | 0.00 | 0.00 | 0.00 | 86 | 1015.4 |
| 20260506061511 | 55 | 188 | 5.0 | 10.0 | 0.00 | 0.00 | 0.00 | 84 | 1015.1 |
| 20260506044510 | 56 | 147 | 3.0 | 10.0 | 0.00 | 0.00 | 0.00 | 81 | 1014.7 |
| 20260506043008 | 56 | 188 | 4.0 | 10.0 | 0.00 | 0.00 | 0.00 | 82 | 1014.5 |
| 20260506041507 | 57 | 178 | 3.0 | 12.0 | 0.00 | 0.00 | 0.00 | 81 | 1014.4 |
| 20260506040007 | 57 | 181 | 3.0 | 11.0 | 0.00 | 0.00 | 0.00 | 81 | 1014.2 |
| 20260506034517 | 57 | 174 | 4.0 | 10.0 | 0.00 | 0.00 | 0.00 | 81 | 1014.0 |
| 20260506033006 | 57 | 166 | 3.0 | 12.0 | 0.00 | 0.00 | 0.00 | 80 | 1014.0 |
| 20260506031505 | 57 | 80 | 3.0 | 12.0 | 0.00 | 0.00 | 0.00 | 80 | 1013.8 |
| 20260506030017 | 57 | 174 | 4.0 | 10.0 | 0.00 | 0.00 | 0.00 | 81 | 1013.6 |
| 20260506024510 | 57 | 192 | 4.0 | 12.0 | 0.00 | 0.00 | 0.00 | 81 | 1013.6 |
| 20260506023010 | 57 | 227 | 3.0 | 11.0 | 0.00 | 0.00 | 0.00 | 82 | 1013.8 |
| 20260506021503 | 58 | 189 | 5.0 | 10.0 | 0.00 | 0.00 | 0.00 | 81 | 1013.9 |
| 20260506020001 | 58 | 167 | 3.0 | 11.0 | 0.00 | 0.00 | 0.00 | 82 | 1013.8 |
| 20260506014600 | 58 | 180 | 2.0 | 8.0 | 0.00 | 0.00 | 0.00 | 82 | 1013.8 |
| 20260506013110 | 58 | 161 | 4.0 | 10.0 | 0.00 | 0.00 | 0.00 | 81 | 1013.9 |
| 20260506011609 | 59 | 134 | 3.0 | 8.0 | 0.00 | 0.00 | 0.00 | 80 | 1013.8 |
| 20260506010058 | 60 | 232 | 2.0 | 8.0 | 0.00 | 0.00 | 0.00 | 78 | 1013.8 |
| 20260506004557 | 59 | 168 | 3.0 | 10.0 | 0.00 | 0.00 | 0.00 | 79 | 1013.9 |
| 20260506003058 | 59 | 241 | 4.0 | 10.0 | 0.00 | 0.00 | 0.00 | 79 | 1013.9 |
| 20260506001557 | 60 | 191 | 4.0 | 10.0 | 0.00 | 0.00 | 0.00 | 78 | 1014.0 |
| 20260506000053 | 60 | 184 | 4.0 | 9.0 | 0.00 | 0.00 | 0.00 | 79 | 1014.2 |
| 20260505234552 | 60 | 195 | 3.0 | 10.0 | 0.00 | 0.00 | 0.00 | 79 | 1014.2 |
| 20260505233051 | 60 | 194 | 4.0 | 12.0 | 0.00 | 0.00 | 0.00 | 79 | 1014.4 |
| 20260505231550 | 60 | 176 | 5.0 | 10.0 | 0.00 | 0.00 | 0.00 | 78 | 1014.5 |
| 20260505230101 | 60 | 158 | 5.0 | 12.0 | 0.00 | 0.00 | 0.00 | 78 | 1014.6 |
| 20260505224548 | 60 | 198 | 5.0 | 11.0 | 0.00 | 0.00 | 0.00 | 78 | 1014.8 |
| 20260505223056 | 61 | 197 | 4.0 | 13.0 | 0.00 | 0.00 | 0.00 | 76 | 1014.9 |
| 20260505221548 | 61 | 177 | 4.0 | 12.0 | 0.00 | 0.00 | 0.00 | 77 | 1014.9 |
| 20260505220046 | 61 | 214 | 6.0 | 17.0 | 0.00 | 0.00 | 0.00 | 77 | 1015.0 |
| 20260505214546 | 61 | 191 | 5.0 | 9.0 | 0.00 | 0.00 | 0.00 | 77 | 1015.1 |
| 20260505213054 | 60 | 134 | 3.0 | 10.0 | 0.00 | 0.00 | 0.00 | 78 | 1015.1 |
| 20260505211545 | 62 | 163 | 3.0 | 8.0 | 0.00 | 0.00 | 0.00 | 76 | 1015.2 |
| 20260505210043 | 61 | 184 | 4.0 | 10.0 | 0.00 | 0.00 | 0.00 | 77 | 1015.3 |
| 20260505204543 | 61 | 163 | 5.0 | 11.0 | 0.00 | 0.00 | 0.00 | 77 | 1015.4 |
| 20260505203047 | 61 | 333 | 3.0 | 9.0 | 0.00 | 0.00 | 0.00 | 77 | 1015.4 |
| 20260505201542 | 60 | 170 | 4.0 | 12.0 | 0.00 | 0.00 | 0.00 | 77 | 1015.4 |
| 20260505200041 | 61 | 206 | 3.0 | 10.0 | 0.00 | 0.00 | 0.00 | 78 | 1015.3 |
| 20260505194543 | 60 | 184 | 4.0 | 10.0 | 0.00 | 0.00 | 0.00 | 78 | 1015.4 |
| 20260505193039 | 60 | 181 | 4.0 | 10.0 | 0.00 | 0.00 | 0.00 | 79 | 1015.3 |
| 20260505191538 | 60 | 199 | 3.0 | 10.0 | 0.00 | 0.00 | 0.00 | 79 | 1015.4 |
| 20260505190038 | 59 | 191 | 3.0 | 8.0 | 0.00 | 0.00 | 0.00 | 80 | 1015.3 |
| 20260505184534 | 58 | 146 | 2.0 | 7.0 | 0.00 | 0.00 | 0.00 | 82 | 1015.3 |
| 20260505183032 | 58 | 153 | 3.0 | 7.0 | 0.00 | 0.00 | 0.00 | 82 | 1015.4 |
| 20260505181531 | 58 | 141 | 2.0 | 6.0 | 0.00 | 0.00 | 0.00 | 83 | 1015.3 |
| 20260505180029 | 57 | 193 | 3.0 | 9.0 | 0.00 | 0.00 | 0.00 | 84 | 1015.2 |
| 20260505174529 | 57 | 176 | 2.0 | 8.0 | 0.00 | 0.00 | 0.00 | 85 | 1015.2 |
| 20260505173039 | 56 | 167 | 2.0 | 8.0 | 0.00 | 0.00 | 0.00 | 86 | 1015.2 |
| 20260505171526 | 56 | 98 | 2.0 | 8.0 | 0.00 | 0.00 | 0.00 | 86 | 1015.3 |
| 20260505170026 | 56 | 214 | 2.0 | 6.0 | 0.00 | 0.00 | 0.00 | 86 | 1015.3 |
| 20260505164543 | 55 | 177 | 3.0 | 8.0 | 0.00 | 0.00 | 0.00 | 87 | 1015.2 |
| 20260505163018 | 55 | 182 | 3.0 | 9.0 | 0.00 | 0.00 | 0.00 | 87 | 1015.1 |
| 20260505161515 | 55 | 197 | 2.0 | 8.0 | 0.00 | 0.00 | 0.00 | 88 | 1015.3 |
| 20260505153011 | 55 | 187 | 4.0 | 14.0 | 0.00 | 0.00 | 0.00 | 87 | 1015.1 |
| 20260505151508 | 55 | 157 | 4.0 | 16.0 | 0.00 | 0.00 | 0.00 | 88 | 1014.9 |
| 20260505140106 | 53 | 163 | 3.0 | 7.0 | 0.00 | 0.00 | 0.00 | 88 | 1014.0 |
| 20260505124543 | 54 | 186 | 4.0 | 8.0 | 0.00 | 0.00 | 0.00 | 87 | 1013.2 |
| 20260505123040 | 54 | 182 | 4.0 | 10.0 | 0.00 | 0.00 | 0.00 | 87 | 1013.0 |
| 20260505121538 | 54 | 154 | 4.0 | 9.0 | 0.00 | 0.00 | 0.00 | 87 | 1012.9 |
| 20260505120038 | 54 | 186 | 5.0 | 14.0 | 0.00 | 0.00 | 0.00 | 86 | 1012.8 |
| 20260505114538 | 54 | 180 | 4.0 | 11.0 | 0.00 | 0.00 | 0.00 | 86 | 1012.7 |
| 20260505113031 | 54 | 194 | 4.0 | 10.0 | 0.00 | 0.00 | 0.00 | 86 | 1012.5 |
| 20260505111534 | 54 | 190 | 4.0 | 11.0 | 0.00 | 0.00 | 0.00 | 86 | 1012.3 |
| 20260505101520 | 55 | 170 | 5.0 | 12.0 | 0.00 | 0.00 | 0.00 | 83 | 1011.8 |
| 20260505100018 | 55 | 179 | 5.0 | 13.0 | 0.00 | 0.00 | 0.00 | 83 | 1011.7 |
| 20260505094515 | 55 | 178 | 6.0 | 14.0 | 0.00 | 0.00 | 0.00 | 81 | 1011.7 |
| 20260505093013 | 56 | 213 | 4.0 | 13.0 | 0.00 | 0.00 | 0.00 | 79 | 1011.7 |
| 20260505091510 | 57 | 200 | 3.0 | 13.0 | 0.00 | 0.00 | 0.00 | 77 | 1011.4 |
| 20260505090009 | 58 | 190 | 4.0 | 12.0 | 0.00 | 0.00 | 0.00 | 73 | 1011.2 |
| 20260505084507 | 58 | 178 | 4.0 | 14.0 | 0.00 | 0.00 | 0.00 | 70 | 1011.2 |
| 20260505083005 | 57 | 171 | 2.0 | 8.0 | 0.00 | 0.00 | 0.00 | 74 | 1011.0 |
| 20260505081503 | 57 | 186 | 2.0 | 7.0 | 0.00 | 0.00 | 0.00 | 78 | 1010.9 |
| 20260505074610 | 56 | 173 | 3.0 | 16.0 | 0.00 | 0.00 | 0.00 | 79 | 1010.5 |